Weather Roundup
Issued by NWS

Home | Current Version | Previous Version | Text Only | Print | Product List | Glossary On
Versions: 1 2 3 4 5 6 7 8 9 10 11 12 13 14 15 16 17 18 19 20 21 22 23 24 25 26 27 28 29 30 31 32 33 34 35 36 37 38 39 40 41 42 43 44 45 46 47 48 49 50
854
NZUS93 KARX 110610
HRRWXR

CURRENT HOURLY OBSERVATIONS ACROSS
MUCH OF THE UPPER MISSISSIPPI VALLEY
NATIONAL WEATHER SERVICE LA CROSSE WI
1200 AM CST SUN DEC 11 2016


...SOUTHEAST MINNESOTA...


CITY           SKY/WX    TMP DP  RH WIND       PRES   REMARKS
ROCHESTER      LGT SNOW  14  12  92 E13       30.09F VSB 1   WCI   0
ROCHESTER/MAYO CLOUDY    16  14  93 E7        30.11F WCI   6
WINONA         LGT SNOW  18  14  86 SE8       30.19F WCI   7
AUSTIN         LGT SNOW  18  16  93 SE13      30.06F WCI   4
ALBERT LEA     LGT SNOW  21  19  93 SE12G17   30.05F WCI   9
DODGE CENTER   LGT SNOW  14  12  92 E12       30.07F WCI   0
PRESTON        LGT SNOW  16  13  90 SE8       30.10F WCI   5
OWATONNA       LGT SNOW  16  12  86 E13       30.07F WCI   2
FARIBAULT      LGT SNOW  14  12  92 E7        30.09F WCI   4
$$

...ELSEWHERE IN MINNESOTA...


CITY           SKY/WX    TMP DP  RH WIND       PRES   REMARKS
MINNEAPOLIS    LGT SNOW  14  10  84 E9        30.14F FOG     WCI   2
INTNL FALLS    CLOUDY   -10 -15  78 CALM      30.23F HAZE
DULUTH         CLOUDY     5   0  79 CALM      30.17F
RED WING       LGT SNOW  16  10  79 E7        30.15F WCI   6
REDWOOD FALLS  SNOW      13   9  84 E12       30.04F VSB 1/2 WCI  -1
MANKATO        LGT SNOW  16  12  86 E12       30.06F VSB 1   WCI   3
WORTHINGTON    MIX PCPN  18  16  93 E14       29.92F WCI   4
FAIRMONT       LGT SNOW  19  17  92 E15       30.01F FOG     WCI   5
$$

...SOUTHWEST WISCONSIN...


CITY           SKY/WX    TMP DP  RH WIND       PRES   REMARKS
LA CROSSE      LGT SNOW  18  15  88 SE6       30.18F FOG     WCI  10
PRAIRIE DU CHI LGT SNOW  22  18  86 E5        30.17F WCI  15
BOSCOBEL       LGT SNOW  21  18  88 NE5       30.20F VSB 1   WCI  15
LONE ROCK      LGT SNOW  20  18  92 E8        30.21F VSB 1   WCI  10
PLATTEVILLE    CLOUDY    22  21  98 E12       30.16F WCI  10
FORT MC COY    LGT SNOW  17  15  93 E3        30.20S
CAMP DOUGLAS   LGT SNOW  17  14  88 E6        30.19F FOG     WCI   8
MAUSTON-NEW LI LGT SNOW  17  15  90 SE3       30.19F
VIROQUA        CLOUDY    17  16  93 SE10      30.14F WCI   5
WIS DELLS      LGT SNOW  19  17  92 E6        30.19F WCI  10
$$

...ELSEWHERE IN WISCONSIN...


CITY           SKY/WX    TMP DP  RH WIND       PRES   REMARKS
MILWAUKEE      LGT SNOW  22  18  85 SE6       30.28F VSB 1   WCI  14
MADISON        LGT SNOW  19  17  92 SE7       30.22F VSB 1   WCI  10
GREEN BAY      LGT SNOW  19  15  84 E3        30.28F FOG
EAU CLAIRE     LGT SNOW  14  11  87 E8        30.18F FOG     WCI   3
BLACK RVR FLS  LGT SNOW  17  13  86 E3        30.20F
MEDFORD        LGT SNOW  11   7  85 CALM      30.17S
WAUSAU         LGT SNOW  11   8  88 E6        30.20F FOG     WCI   1
WIS RAPIDS     LGT SNOW  15  13  91 SE7       30.22F FOG     WCI   5
MARSHFIELD     LGT SNOW  14  10  84 E6        30.18F FOG     WCI   5
RICE LAKE      LGT SNOW  12   9  87 E6        30.20F VSB 1   WCI   3
$$

...NORTHEAST IOWA...


CITY           SKY/WX    TMP DP  RH WIND       PRES   REMARKS
WATERLOO       LGT SNOW  22  19  89 E13       30.07F VSB 3/4 WCI  10
DUBUQUE        LGT SNOW  21  19  92 E9        30.14F FOG     WCI  11
DECORAH        LGT SNOW  19  18  93 SE9       30.10F WCI   9
MASON CITY     LGT SNOW  20  17  88 SE12      30.06F FOG     WCI   8
CHARLES CITY   LGT SNOW  21  19  93 E16       30.07F WCI   7
OELWEIN        LGT SNOW  21  21 100 SE15      30.10F WCI   8
$$

...ELSEWHERE IN IOWA...


CITY           SKY/WX    TMP DP  RH WIND       PRES   REMARKS
DES MOINES     CLOUDY    28  20  71 E7        29.99F WCI  21
IOWA CITY      CLOUDY    26  20  77 SE9       30.13F WCI  17
FORT DODGE     CLOUDY    21  18  86 SE12      30.00F WCI   9
MARSHALLTOWN   LGT SNOW  22  21  96 E15       30.04F FOG     WCI   9
CEDAR RAPIDS   LGT SNOW  23  22  96 E13       30.08F FOG     WCI  11
$$

...NORTHERN ILLINOIS...


CITY           SKY/WX    TMP DP  RH WIND       PRES   REMARKS
CHICAGO-OHARE  LGT SNOW  23  20  88 S13       30.26F FOG     WCI  11
CHICAGO-MIDWAY LGT SNOW  25  19  78 S8        30.28F FOG     WCI  16
MOLINE         CLOUDY    26  20  77 SE10      30.15F WCI  16
ROCKFORD       LGT SNOW  23  20  88 SE13      30.24F FOG     WCI  11
PEORIA         CLOUDY    28  22  78 SE9       30.18F WCI  19
$$

NOTE: "FAIR" INDICATES FEW OR NO CLOUDS BELOW 12,000 FEET WITH NO
SIGNIFICANT WEATHER AND/OR OBSTRUCTIONS TO VISIBILITY. WIND
SPEEDS ARE IN MILES-PER-HOUR.




USA.gov is the U.S. government's official web portal to all federal, state and local government web resources and services.